Surface/Precipitation History
08/20/2014 08:04  to  8/21/2014 08:04
Change End Date:
Date/Time
(MDT)
Sf
Temp Chem Water Layer Surface Precipitation
Sf Sub Frz Factor Pct Depth IcePct Cond Salin Type Intens Accum Rate
08/21/2014 07:51 Wet 60.4F - 32F 5 0% 0.00 in 0% 0 mhos 0 None None - -
08/21/2014 07:45 Wet 60.1F - 32F 5 0% 0.00 in 0% 0 mhos 1 None None - -
08/21/2014 07:40 Wet 59.9F - 32F 5 0% 0.00 in 0% 0 mhos 1 None None - -
08/21/2014 07:35 Wet 59.9F - 32F 5 0% 0.00 in 0% 0 mhos 1 None None - -
08/21/2014 07:25 Wet 59.2F - 32F 5 0% 0.10 in 0% 0 mhos 2 None None - -
08/21/2014 07:21 Wet 59.2F - 32F 5 0% 0.00 in 0% 0 mhos 2 None None - -
08/21/2014 07:15 Wet 58.8F - 32F 5 0% 0.00 in 0% 0 mhos 3 None None - -
08/21/2014 07:11 Wet 58.6F - 32F 5 0% 0.00 in 0% 0 mhos 3 None None - -
08/21/2014 07:05 Wet 58.1F - 32F 5 0% 0.00 in 0% 0 mhos 3 None None - -
08/21/2014 06:55 Wet 57.9F - 32F 5 0% 0.00 in 0% 0 mhos 4 None None - -
08/21/2014 06:51 Wet 57.9F - 32F 5 0% 0.00 in 0% 0 mhos 4 None None - -
08/21/2014 06:45 Wet 57.9F - 32F 5 0% 0.00 in 0% 0 mhos 4 None None - -
08/21/2014 06:40 Wet 57.7F - 32F 5 0% 0.00 in 0% 0 mhos 5 None None - -
08/21/2014 06:35 Wet 57.7F - 32F 5 0% 0.00 in 0% 0 mhos 5 None None - -
08/21/2014 06:25 Wet 57.4F - 32F 5 0% 0.00 in 0% 0 mhos 5 None None - -
Date/Time
(MDT)
Sf
Temp Chem Water Layer Surface Precipitation
Sf Sub Frz Factor Pct Depth IcePct Cond Salin Type Intens Accum Rate
08/21/2014 06:21 Wet 57.0F - 32F 5 0% 0.00 in 0% 0 mhos 5 None None - -
08/21/2014 06:15 Wet 56.8F - 32F 5 0% 0.00 in 0% 0 mhos 6 None None - -
08/21/2014 06:11 Wet 56.8F - 32F 5 0% 0.00 in 0% 0 mhos 6 None None - -
08/21/2014 06:05 Wet 56.8F - 32F 5 0% 0.00 in 0% 0 mhos 6 None None - -
08/21/2014 05:55 Wet 56.8F - 32F 5 0% 0.00 in 0% 0 mhos 6 None None - -
08/21/2014 05:51 Wet 56.8F - 32F 5 0% 0.00 in 0% 0 mhos 6 None None - -
08/21/2014 05:45 Wet 57.2F - 32F 5 0% 0.00 in 0% 0 mhos 6 None None - -
08/21/2014 05:41 Wet 57.4F - 32F 5 0% 0.00 in 0% 0 mhos 6 None None - -
08/21/2014 05:35 Wet 57.6F - 32F 5 0% 0.00 in 0% 0 mhos 6 None None - -
08/21/2014 05:25 Wet 57.7F - 32F 5 0% 0.00 in 0% 0 mhos 6 None None - -
08/21/2014 05:21 Wet 57.7F - 32F 5 0% 0.00 in 0% 0 mhos 6 None None - -
08/21/2014 05:15 Wet 57.6F - 32F 5 0% 0.00 in 0% 0 mhos 5 None None - -
08/21/2014 05:11 Wet 57.6F - 32F 5 0% 0.00 in 0% 0 mhos 5 None None - -
08/21/2014 05:05 Wet 57.9F - 32F 5 0% 0.00 in 0% 0 mhos 5 None None - -
08/21/2014 04:55 Wet 58.1F - 32F 5 0% 0.00 in 0% 0 mhos 4 None None - -
Date/Time
(MDT)
Sf
Temp Chem Water Layer Surface Precipitation
Sf Sub Frz Factor Pct Depth IcePct Cond Salin Type Intens Accum Rate
08/21/2014 04:51 Wet 58.3F - 32F 5 0% 0.00 in 0% 0 mhos 5 None None - -
08/21/2014 04:45 Wet 58.5F - 32F 5 0% 0.00 in 0% 0 mhos 5 None None - -
08/21/2014 04:35 Wet 58.6F - 32F 5 0% 0.00 in 0% 0 mhos 3 None None - -
08/21/2014 04:25 Wet 59.2F - 32F 5 0% 0.00 in 0% 0 mhos 5 None None - -
08/21/2014 04:21 Wet 59.2F - 32F 5 0% 0.00 in 0% 0 mhos 5 None None - -
08/21/2014 04:15 Wet 59.2F - 32F 5 0% 0.00 in 0% 0 mhos 5 None None - -
08/21/2014 04:11 Wet 59.2F - 32F 5 0% 0.00 in 0% 0 mhos 4 None None - -
08/21/2014 04:05 Wet 59.2F - 32F 5 0% 0.00 in 0% 0 mhos 4 None None - -
08/21/2014 03:55 Wet 59.2F - 32F 5 0% 0.00 in 0% 0 mhos 4 None None - -
08/21/2014 03:51 Wet 59.2F - 32F 5 0% 0.00 in 0% 0 mhos 4 None None - -
08/21/2014 03:45 Wet 59.2F - 32F 5 0% 0.00 in 0% 0 mhos 4 None None - -
08/21/2014 03:41 Wet 59.2F - 32F 5 0% 0.00 in 0% 0 mhos 4 Yes - - -
08/21/2014 03:35 Wet 59.4F - 32F 5 0% 0.00 in 0% 0 mhos 4 Yes - - -
08/21/2014 03:25 Wet 59.4F - 32F 5 0% 0.00 in 0% 0 mhos 2 None None - -
08/21/2014 03:21 Wet 59.7F - 32F 10 0% 0.10 in 0% 0 mhos 3 None None - -
Date/Time
(MDT)
Sf
Temp Chem Water Layer Surface Precipitation
Sf Sub Frz Factor Pct Depth IcePct Cond Salin Type Intens Accum Rate
08/21/2014 03:15 Wet 59.9F - 32F 10 0% 0.10 in 0% 0 mhos 3 None None - -
08/21/2014 03:11 Wet 59.9F - 32F 10 0% 0.10 in 0% 0 mhos 3 None None - -
08/21/2014 03:05 Wet 59.9F - 32F 10 0% 0.10 in 0% 0 mhos 3 None None - -
08/21/2014 02:54 Wet 59.9F - 32F 15 0% 0.10 in 0% 0 mhos 2 None None - -
08/21/2014 02:51 Wet 59.9F - 32F 15 0% 0.10 in 0% 0 mhos 2 None None - -
08/21/2014 02:44 Wet 60.1F - 32F 20 0% 0.10 in 0% 0 mhos 2 None None - -
08/21/2014 02:41 Wet 60.1F - 32F 20 0% 0.10 in 0% 0 mhos 2 None None - -
08/21/2014 02:34 Wet 59.9F - 32F 10 0% 0.10 in 0% 0 mhos 2 Yes - - -
08/21/2014 02:24 Wet 59.4F - 32F 10 0% 0.10 in 0% 0 mhos 2 Yes - - -
08/21/2014 02:21 Wet 59.5F - 32F 30 0% 0.20 in 0% 0 mhos 2 Yes - - -
08/21/2014 02:14 Wet 59.4F - 32F 30 0% 0.20 in 0% 0 mhos 2 Yes - - -
08/21/2014 02:11 Wet 59.4F - 32F 25 0% 0.10 in 0% 0 mhos 2 Yes - - -
08/21/2014 02:04 Wet 59.2F - 32F 30 0% 0.10 in 0% 0 mhos 2 Yes - - -
08/21/2014 01:55 Wet 59.9F - 32F 30 0% 0.20 in 0% 0 mhos 2 Yes - - -
08/21/2014 01:54 Wet 59.9F - 32F 35 0% 0.20 in 0% 0 mhos 2 Yes - - -
Date/Time
(MDT)
Sf
Temp Chem Water Layer Surface Precipitation
Sf Sub Frz Factor Pct Depth IcePct Cond Salin Type Intens Accum Rate
08/21/2014 01:44 Wet 59.7F - 32F 55 0% 0.10 in 0% 0 mhos 3 Yes - - -
08/21/2014 01:41 Wet 59.2F - 32F 55 0% 0.10 in 0% 0 mhos 4 Yes - - -
08/21/2014 01:34 Wet 59.2F - 32F 35 0% 0.00 in 0% 0 mhos 6 Yes - - -
08/21/2014 01:24 Wet 59.4F - 32F 5 0% 0.00 in 0% 0 mhos 6 Yes - - -
08/21/2014 01:21 Wet 59.4F - 32F 5 0% 0.00 in 0% 0 mhos 6 Yes - - -
08/21/2014 01:14 Wet 59.2F - 32F 5 0% 0.00 in 0% 0 mhos 6 Yes - - -
08/21/2014 01:04 Wet 59.5F - 32F 5 0% 0.00 in 0% 0 mhos 6 Yes - - -
08/21/2014 00:54 Wet 60.1F - 32F 5 0% 0.00 in 0% 0 mhos 5 None None - -
08/21/2014 00:44 Wet 60.4F - 32F 5 0% 0.00 in 0% 0 mhos 5 None None - -
08/21/2014 00:34 Wet 60.8F - 32F 5 0% 0.00 in 0% 0 mhos 5 None None - -
08/21/2014 00:24 Wet 61.5F - 32F 5 0% 0.00 in 0% 0 mhos 5 None None - -
08/21/2014 00:14 Wet 62.2F - 32F 15 0% 0.00 in 0% 0 mhos 4 None None - -
08/21/2014 00:04 Wet 62.2F - 32F 20 0% 0.10 in 0% 0 mhos 4 None None - -
08/20/2014 23:54 Wet 62.6F - 32F 25 0% 0.10 in 0% 0 mhos 3 None None - -
08/20/2014 23:44 Wet 62.2F - 32F 30 0% 0.10 in 0% 0 mhos 3 Yes - - -
Date/Time
(MDT)
Sf
Temp Chem Water Layer Surface Precipitation
Sf Sub Frz Factor Pct Depth IcePct Cond Salin Type Intens Accum Rate
08/20/2014 23:42 Wet 62.4F - 32F 25 0% 0.10 in 0% 0 mhos 3 None None - -
08/20/2014 23:34 Wet 62.4F - 32F 30 0% 0.10 in 0% 0 mhos 3 Yes - - -
08/20/2014 23:24 Wet 62.4F - 32F 10 0% 0.10 in 0% 0 mhos 3 Yes - - -
08/20/2014 23:14 Wet 62.6F - 32F 45 0% 0.10 in 0% 0 mhos 3 Yes - - -
08/20/2014 23:04 Wet 62.2F - 32F 50 0% 0.10 in 0% 0 mhos 4 Yes - - -
08/20/2014 22:56 Wet 62.1F - 32F 40 0% 0.10 in 0% 0 mhos 5 Yes - - -
08/20/2014 22:54 Wet 62.1F - 32F 35 0% 0.00 in 0% 0 mhos 5 Yes - - -
08/20/2014 22:44 Wet 62.1F - 32F 5 0% 0.00 in 0% 0 mhos 5 Yes - - -
08/20/2014 22:41 Wet 62.1F - 32F 5 0% 0.00 in 0% 0 mhos 5 Yes - - -
08/20/2014 22:34 Wet 62.2F - 32F 5 0% 0.00 in 0% 0 mhos 4 Yes - - -
08/20/2014 22:24 Wet 63.7F - 32F 5 0% 0.00 in 0% 0 mhos 4 Yes - - -
08/20/2014 22:14 Wet 63.7F - 32F 5 0% 0.00 in 0% 0 mhos 4 Yes - - -
08/20/2014 22:11 Wet 63.5F - 32F 5 0% 0.00 in 0% 0 mhos 4 None None - -
08/20/2014 22:04 Wet 63.9F - 32F 10 0% 0.00 in 0% 0 mhos 3 None None - -
08/20/2014 21:53 Wet 63.9F - 32F 10 0% 0.00 in 0% 0 mhos 3 None None - -
Date/Time
(MDT)
Sf
Temp Chem Water Layer Surface Precipitation
Sf Sub Frz Factor Pct Depth IcePct Cond Salin Type Intens Accum Rate
08/20/2014 21:51 Wet 63.9F - 32F 10 0% 0.00 in 0% 0 mhos 3 None None - -
08/20/2014 21:43 Wet 64.2F - 32F 15 0% 0.10 in 0% 0 mhos 3 None None - -
08/20/2014 21:41 Wet 64.2F - 32F 20 0% 0.10 in 0% 0 mhos 3 None None - -
08/20/2014 21:33 Wet 64.6F - 32F 30 0% 0.10 in 0% 0 mhos 3 None None - -
08/20/2014 21:23 Wet 65.1F - 32F 35 0% 0.10 in 0% 0 mhos 2 Yes - - -
08/20/2014 21:22 Wet 64.9F - 32F 35 0% 0.10 in 0% 0 mhos 2 Yes - - -
08/20/2014 21:13 Wet 65.3F - 32F 30 0% 0.10 in 0% 0 mhos 3 Yes - - -
08/20/2014 21:11 Wet 65.7F - 32F 35 0% 0.10 in 0% 0 mhos 3 Yes - - -
08/20/2014 21:03 Wet 66.2F - 32F 60 0% 0.10 in 0% 0 mhos 4 Yes - - -
08/20/2014 20:53 Wet 67.1F - 32F 5 0% 0.00 in 0% 0 mhos 5 Yes - - -
08/20/2014 20:43 Wet 68.7F - 32F 5 0% 0.00 in 0% 0 mhos 9 Yes - - -
08/20/2014 20:42 Wet 69.3F - 32F 5 0% 0.00 in 0% 0 mhos 9 Yes - - -
08/20/2014 20:33 Wet 71.1F - 32F 10 0% 0.10 in 0% 0 mhos 2 Yes - - -
08/20/2014 20:23 Error 73.2F - - - - - - 0 mhos 0 Yes - - -
08/20/2014 20:21 Error 73.2F - - - - - - 0 mhos 0 Yes - - -
Date/Time
(MDT)
Sf
Temp Chem Water Layer Surface Precipitation
Sf Sub Frz Factor Pct Depth IcePct Cond Salin Type Intens Accum Rate
08/20/2014 20:13 Error 73.9F - - - - - - 0 mhos 0 None None - -
08/20/2014 20:11 Error 73.8F - - - - - - 0 mhos 0 None None - -
08/20/2014 20:03 Wet 73.4F - 32F 5 0% 0.00 in 0% 0 mhos 0 None None - -
08/20/2014 19:53 Wet 75.0F - 32F 5 0% 0.00 in 0% 0 mhos 0 Yes - - -
08/20/2014 19:51 Dry 76.3F - - - - - - 0 mhos 0 Yes - - -
08/20/2014 19:43 Error 78.8F - - - - - - 0 mhos 0 None None - -
08/20/2014 19:41 Error 79.0F - - - - - - 0 mhos 0 None None - -
08/20/2014 19:33 Error 79.7F - - - - - - 0 mhos 0 None None - -
08/20/2014 19:23 Error 81.9F - - - - - - 0 mhos 0 Yes - - -
08/20/2014 19:13 Error 81.1F - - - - - - 0 mhos 0 None None - -
08/20/2014 19:11 Error 81.3F - - - - - - 0 mhos 0 None None - -
08/20/2014 19:03 Error 81.5F - - - - - - 0 mhos 0 None None - -
08/20/2014 18:53 Error 81.7F - - - - - - 0 mhos 0 None None - -
08/20/2014 18:51 Error 81.9F - - - - - - 0 mhos 0 None None - -
08/20/2014 18:43 Error 82.2F - - - - - - 0 mhos 0 None None - -
Date/Time
(MDT)
Sf
Temp Chem Water Layer Surface Precipitation
Sf Sub Frz Factor Pct Depth IcePct Cond Salin Type Intens Accum Rate
08/20/2014 18:41 Error 82.4F - - - - - - 0 mhos 0 None None - -
08/20/2014 18:33 Error 83.1F - - - - - - 0 mhos 0 None None - -
08/20/2014 18:23 Error 83.3F - - - - - - 0 mhos 0 None None - -
08/20/2014 18:21 Error 83.3F - - - - - - 0 mhos 0 None None - -
08/20/2014 18:13 Error 83.3F - - - - - - 0 mhos 0 None None - -
08/20/2014 18:11 Error 83.5F - - - - - - 0 mhos 0 None None - -
08/20/2014 18:03 Error 83.8F - - - - - - 0 mhos 0 None None - -
08/20/2014 17:53 Error 84.4F - - - - - - 0 mhos 0 None None - -
08/20/2014 17:43 Error 85.5F - - - - - - 0 mhos 0 None None - -
08/20/2014 17:41 Error 85.8F - - - - - - 0 mhos 0 None None - -
08/20/2014 17:33 Error 86.4F - - - - - - 0 mhos 0 None None - -
08/20/2014 17:23 Error 87.8F - - - - - - 0 mhos 0 None None - -
08/20/2014 17:21 Error 88.0F - - - - - - 0 mhos 0 None None - -
08/20/2014 17:13 Error 90.0F - - - - - - 0 mhos 0 None None - -
08/20/2014 17:11 Error 90.9F - - - - - - 0 mhos 0 None None - -
Date/Time
(MDT)
Sf
Temp Chem Water Layer Surface Precipitation
Sf Sub Frz Factor Pct Depth IcePct Cond Salin Type Intens Accum Rate
08/20/2014 17:03 Error 93.9F - - - - - - 0 mhos 0 None None - -
08/20/2014 16:52 Error 91.2F - - - - - - 0 mhos 0 None None - -
08/20/2014 16:51 Error 90.5F - - - - - - 0 mhos 0 None None - -
08/20/2014 16:42 Error 88.5F - - - - - - 0 mhos 0 None None - -
08/20/2014 16:41 Error 88.3F - - - - - - 0 mhos 0 None None - -
08/20/2014 16:32 Error 89.2F - - - - - - 0 mhos 0 None None - -
08/20/2014 16:22 Error 91.4F - - - - - - 0 mhos 0 None None - -
08/20/2014 16:21 Error 91.8F - - - - - - 0 mhos 0 None None - -
08/20/2014 16:12 Error 91.2F - - - - - - 0 mhos 0 None None - -
08/20/2014 16:11 Error 90.9F - - - - - - 0 mhos 0 None None - -
08/20/2014 16:02 Error 81.3F - - - - - - 0 mhos 1 None None - -
08/20/2014 15:52 Wet 77.5F - 32F 5 0% 0.00 in 0% 0 mhos 5 None None - -
08/20/2014 15:51 Wet 78.3F - 32F 5 0% 0.00 in 0% 0 mhos 6 None None - -
08/20/2014 15:42 Dry 79.0F - - - - - - 0 mhos 0 Yes - - -
08/20/2014 15:40 Error 82.2F - - - - - - 0 mhos 0 None None - -
Date/Time
(MDT)
Sf
Temp Chem Water Layer Surface Precipitation
Sf Sub Frz Factor Pct Depth IcePct Cond Salin Type Intens Accum Rate
08/20/2014 15:32 Error 84.0F - - - - - - 0 mhos 0 None None - -
08/20/2014 15:22 Error 87.6F - - - - - - 0 mhos 0 None None - -
08/20/2014 15:21 Error 87.6F - - - - - - 0 mhos 0 None None - -
08/20/2014 15:12 Error 85.5F - - - - - - 0 mhos 0 None None - -
08/20/2014 15:11 Error 85.5F - - - - - - 0 mhos 0 None None - -
08/20/2014 15:02 Error 86.4F - - - - - - 0 mhos 0 None None - -
08/20/2014 14:52 Error 87.4F - - - - - - 0 mhos 0 None None - -
08/20/2014 14:51 Error 88.2F - - - - - - 0 mhos 0 None None - -
08/20/2014 14:42 Error 79.3F - - - - - - 0 mhos 0 None None - -
08/20/2014 14:40 Dry 77.5F - - - - - - 0 mhos 1 None None - -
08/20/2014 14:32 Dry 78.6F - - - - - - 0 mhos 4 Yes - - -
08/20/2014 14:22 Wet 73.6F - 32F 5 0% 0.00 in 0% 0 mhos 6 None None - -
08/20/2014 14:21 Wet 73.4F - 32F 5 0% 0.00 in 0% 0 mhos 7 None None - -
08/20/2014 14:12 Wet 73.8F - 32F 5 0% 0.00 in 0% 0 mhos 7 Yes - - -
08/20/2014 14:10 Wet 73.4F - 32F 5 0% 0.00 in 0% 0 mhos 7 Yes - - -
Date/Time
(MDT)
Sf
Temp Chem Water Layer Surface Precipitation
Sf Sub Frz Factor Pct Depth IcePct Cond Salin Type Intens Accum Rate
08/20/2014 14:02 Wet 75.6F - 32F 5 0% 0.00 in 0% 0 mhos 6 None None - -
08/20/2014 13:52 Wet 78.4F - 32F 10 0% 0.00 in 0% 0 mhos 7 Yes - - -
08/20/2014 13:51 Wet 77.2F - 32F 5 0% 0.00 in 0% 0 mhos 6 Yes - - -
08/20/2014 13:42 Wet 77.2F - 32F 5 0% 0.00 in 0% 0 mhos 4 None None - -
08/20/2014 13:40 Wet 77.9F - 32F 10 0% 0.00 in 0% 0 mhos 6 None None - -
08/20/2014 13:32 Wet 79.0F - 32F 60 0% 0.10 in 0% 0 mhos 4 Yes - - -
08/20/2014 13:22 Wet 78.1F - 32F 85 0% 0.10 in 0% 0 mhos 5 Yes - - -
08/20/2014 13:21 Wet 77.9F - 32F 85 0% 0.10 in 0% 0 mhos 5 Yes - - -
08/20/2014 13:12 Wet 80.2F - 32F 5 0% 0.00 in 0% 0 mhos 4 Yes - - -
08/20/2014 13:11 Wet 81.3F - 32F 5 0% 0.20 in 0% 0 mhos 1 Yes - - -
08/20/2014 13:02 Error 88.2F - - - - - - 0 mhos 0 None None - -
08/20/2014 12:52 Error 91.8F - - - - - - 0 mhos 0 None None - -
08/20/2014 12:51 Error 91.8F - - - - - - 0 mhos 0 None None - -
08/20/2014 12:42 Error 88.7F - - - - - - 0 mhos 0 None None - -
08/20/2014 12:41 Error 88.7F - - - - - - 0 mhos 0 None None - -
Date/Time
(MDT)
Sf
Temp Chem Water Layer Surface Precipitation
Sf Sub Frz Factor Pct Depth IcePct Cond Salin Type Intens Accum Rate
08/20/2014 12:32 Error 85.5F - - - - - - 0 mhos 0 None None - -
08/20/2014 12:21 Dry 84.4F - - - - - - 0 mhos 2 None None - -
08/20/2014 12:21 Wet 85.8F - 32F 35 0% 0.10 in 0% 0 mhos 2 None None - -
08/20/2014 12:11 Wet 89.1F - 32F 15 0% 0.10 in 0% 0 mhos 1 Yes - - -
08/20/2014 12:11 Wet 90.9F - 32F 5 0% 0.00 in 0% 0 mhos 2 Yes - - -
08/20/2014 12:01 Error 103.3F - - - - - - 0 mhos 0 None None - -
08/20/2014 11:51 Error 104.9F - - - - - - 0 mhos 0 None None - -
08/20/2014 11:51 Error 105.4F - - - - - - 0 mhos 0 None None - -
08/20/2014 11:41 Error 106.7F - - - - - - 0 mhos 0 None None - -
08/20/2014 11:41 Error 106.0F - - - - - - 0 mhos 0 None None - -
08/20/2014 11:31 Error 101.1F - - - - - - 0 mhos 0 None None - -
08/20/2014 11:21 Error 103.1F - - - - - - 0 mhos 0 None None - -
08/20/2014 11:21 Error 102.2F - - - - - - 0 mhos 0 None None - -
08/20/2014 11:11 Error 102.7F - - - - - - 0 mhos 0 None None - -
08/20/2014 11:11 Error 103.8F - - - - - - 0 mhos 0 None None - -
Date/Time
(MDT)
Sf
Temp Chem Water Layer Surface Precipitation
Sf Sub Frz Factor Pct Depth IcePct Cond Salin Type Intens Accum Rate
08/20/2014 11:01 Error 99.3F - - - - - - 0 mhos 0 None None - -
08/20/2014 10:51 Error 95.5F - - - - - - 0 mhos 0 None None - -
08/20/2014 10:51 Error 95.4F - - - - - - 0 mhos 0 None None - -
08/20/2014 10:41 Error 94.6F - - - - - - 0 mhos 0 None None - -
08/20/2014 10:40 Error 94.5F - - - - - - 0 mhos 0 None None - -
08/20/2014 10:31 Error 92.3F - - - - - - 0 mhos 0 None None - -
08/20/2014 10:21 Error 90.1F - - - - - - 0 mhos 0 None None - -
08/20/2014 10:21 Error 90.0F - - - - - - 0 mhos 0 None None - -
08/20/2014 10:11 Error 87.4F - - - - - - 0 mhos 0 None None - -
08/20/2014 10:11 Error 87.6F - - - - - - 0 mhos 0 None None - -
08/20/2014 10:01 Error 85.5F - - - - - - 0 mhos 0 None None - -
08/20/2014 09:51 Error 83.3F - - - - - - 0 mhos 0 None None - -
08/20/2014 09:51 Error 82.8F - - - - - - 0 mhos 0 None None - -
08/20/2014 09:41 Error 81.7F - - - - - - 0 mhos 0 None None - -
08/20/2014 09:41 Error 81.3F - - - - - - 0 mhos 0 None None - -
Date/Time
(MDT)
Sf
Temp Chem Water Layer Surface Precipitation
Sf Sub Frz Factor Pct Depth IcePct Cond Salin Type Intens Accum Rate
08/20/2014 09:31 Error 79.2F - - - - - - 0 mhos 0 None None - -
08/20/2014 09:21 Error 76.6F - - - - - - 0 mhos 0 None None - -
08/20/2014 09:21 Error 76.3F - - - - - - 0 mhos 0 None None - -
08/20/2014 09:11 Error 72.9F - - - - - - 0 mhos 0 None None - -
08/20/2014 09:11 Error 72.9F - - - - - - 0 mhos 0 None None - -
08/20/2014 09:01 Error 69.6F - - - - - - 0 mhos 0 None None - -
08/20/2014 08:51 Error 67.8F - - - - - - 0 mhos 0 None None - -
08/20/2014 08:51 Error 67.8F - - - - - - 0 mhos 0 None None - -
08/20/2014 08:41 Error 67.3F - - - - - - 0 mhos 0 None None - -
08/20/2014 08:40 Error 67.3F - - - - - - 0 mhos 0 None None - -
08/20/2014 08:31 Error 66.2F - - - - - - 0 mhos 0 None None - -
08/20/2014 08:21 Error 65.8F - - - - - - 0 mhos 0 None None - -
08/20/2014 08:21 Error 65.8F - - - - - - 0 mhos 0 None None - -
08/20/2014 08:11 Error 65.8F - - - - - - 0 mhos 0 None None - -
08/20/2014 08:11 Error 65.7F - - - - - - 0 mhos 0 None None - -
Change End Date:
Copyright © 1998-2005 Surface Systems, Inc.
All Rights Reserved
Send comments about the data to:
SCAN Web ® is a registered trademark of Surface Systems, Inc.
SCAN Web Version 5.6